HUANJING 1B (HJ-1B)

Last updated on Wed Sep 09 2026 00:02:45 GMT+0000 (Coordinated Universal Time)

1 33321U 08041B 26251.64423084 .00000390 00000+0 53394-4 0 9991 2 33321 97.6603 237.2159 0034657 270.0594 89.6650 14.83451270970786
UTC large
Height (km)
Speed (km/s)
/
Latitude / Longitude
Inclination (degrees)
Orbital Period (minutes)
Azimuth
Elevation
Range (km)
Doppler Factor

Next 0 passes for location: London (51.5072 / 0.1276)

No passes found over London.
HUANJING 1B (HJ-1B)